RH
81 81 81 82 84 88 91 94 97 100 100 100 100 100 100 100 100 100 100 100 100 100 100 100 100 100 100 100 100 100 100 100 100 100 100 99 99 99 100 100 100 100 100 100 100 100 100 100 100 100 100 100 100 100 99 100 100 100 100 100 100 100 99
81 80 79 78 77 77 80 83 89 95 99 100 100 99 100 100 100 100 100 100 100 100 100 100 100 100 100 100 100 100 100 100 100 100 100 100 99 99 99 100 100 99 98 99 100 100 99 100 100 100 100 100 100 99 99 100 100 100 100 100 100 100 100
87 85 83 81 79 77 75 74 77 85 94 99 101 100 100 100 100 100 100 100 100 100 100 100 100 100 100 100 100 100 100 100 100 100 100 100 100 99 100 100 99 99 97 98 99 100 100 100 100 100 100 100 100 100 100 100 100 100 100 101 100 100 100
90 88 86 84 82 81 80 78 77 78 83 90 95 97 98 98 98 99 99 99 100 100 100 100 100 101 100 100 100 100 100 100 100 100 100 100 100 100 101 100 99 97 95 94 94 96 98 98 97 97 97 98 98 99 99 99 100 101 100 100 100 100 100
84 83 84 84 84 84 85 84 84 84 85 86 88 90 91 92 92 93 93 93 93 94 94 95 96 98 99 99 100 100 100 100 101 101 100 101 100 101 101 100 99 97 93 90 88 89 92 94 94 92 92 92 92 92 94 95 96 98 99 100 100 100 100
81 80 81 83 84 86 88 86 86 87 88 91 91 91 91 92 93 93 93 94 94 93 92 92 92 93 94 95 95 95 95 96 97 99 100 100 100 100 100 99 98 96 93 90 87 85 86 88 90 89 88 88 86 85 86 88 89 91 93 94 95 96 97
87 86 85 85 86 89 92 92 89 88 88 91 95 95 94 93 93 94 94 94 95 95 95 95 94 94 93 93 93 92 92 92 92 93 94 94 95 95 96 95 95 93 91 89 85 83 82 82 84 85 85 85 83 80 80 81 82 84 86 87 87 89 91
95 96 93 90 88 89 92 94 95 93 92 93 95 96 96 94 93 94 94 94 93 93 93 93 93 93 93 92 92 91 91 92 93 93 93 92 91 91 91 90 90 88 87 85 83 81 79 77 77 78 78 79 79 77 77 77 76 76 81 83 83 84 86
100 101 97 93 89 89 91 93 95 95 95 94 94 94 93 91 91 92 92 92 92 91 90 90 90 90 91 91 91 90 90 90 91 92 93 93 92 92 92 91 90 88 87 85 83 82 80 78 77 76 74 74 75 74 73 73 72 70 72 77 79 81 83
100 100 97 94 92 92 91 90 90 90 91 90 90 88 86 84 84 85 86 87 87 86 86 87 86 87 88 89 90 90 90 91 91 91 91 91 90 91 90 89 88 87 86 86 85 85 84 83 82 82 80 78 77 76 74 73 72 69 67 68 71 75 79
99 99 99 97 96 95 93 91 89 88 88 87 84 79 77 76 76 78 80 80 80 81 82 83 85 85 85 87 87 88 89 90 91 91 92 91 90 90 89 88 86 85 84 84 84 84 85 85 86 87 86 85 83 82 79 77 75 73 70 69 67 68 72
100 99 100 99 98 97 96 94 92 90 88 87 83 74 69 70 73 75 76 75 74 75 76 77 79 79 80 81 82 83 84 85 87 88 88 89 88 88 89 88 87 87 87 87 86 85 85 84 84 85 85 85 84 82 80 79 78 76 74 73 71 70 72
98 97 97 97 96 95 95 94 92 90 87 86 82 73 66 67 71 72 72 71 70 71 71 72 73 74 75 76 76 77 77 78 80 81 81 82 82 83 84 84 85 85 86 87 87 86 86 85 84 82 83 83 82 79 76 75 77 78 79 78 78 76 75
94 92 90 90 89 88 87 86 86 85 83 83 80 74 68 67 68 69 69 67 66 67 67 68 68 69 70 71 71 72 73 73 74 73 73 74 75 76 77 77 78 79 79 81 82 82 83 84 84 83 83 83 81 77 74 74 76 80 83 82 81 79 77
87 85 83 81 80 80 78 77 78 77 76 76 73 69 66 65 65 65 65 64 63 63 63 63 62 62 62 63 65 66 67 68 69 68 68 69 70 70 70 70 70 70 71 72 73 74 75 77 78 79 81 81 79 78 77 77 78 80 81 80 79 78 77
82 80 78 76 74 74 72 71 70 69 68 67 65 61 60 59 57 57 56 56 55 55 55 54 54 53 53 53 55 56 57 59 59 60 61 62 63 64 64 64 64 64 65 65 65 65 65 66 66 68 70 72 73 75 77 77 77 77 76 76 76 75 74
76 73 71 69 67 65 64 63 62 62 61 60 58 55 53 52 51 50 50 49 49 48 48 47 47 47 46 46 47 47 48 49 49 49 50 51 52 54 55 57 57 58 59 59 59 59 58 58 57 56 56 58 59 62 65 66 69 70 71 72 73 73 73
68 66 63 62 60 59 58 57 57 57 56 55 54 52 50 48 48 47 47 46 45 44 43 43 43 42 42 42 42 42 43 43 43 43 42 42 42 44 45 46 48 49 51 51 52 53 53 53 53 52 51 51 50 50 51 51 53 54 57 60 63 65 66
62 61 59 57 56 55 54 53 52 51 50 49 48 46 45 44 43 43 42 41 40 39 38 38 37 36 36 36 36 35 35 35 35 36 37 36 36 37 38 39 40 40 42 43 44 45 46 46 47 48 48 48 48 47 46 45 45 44 45 46 48 50 52
57 56 53 52 50 48 47 45 44 42 40 37 35 33 34 34 33 32 31 30 29 28 27 27 26 25 25 25 24 24 24 23 23 25 27 27 27 27 28 30 31 32 33 35 36 37 38 39 40 41 42 42 43 43 43 43 42 42 42 41 41 41 42
45 43 40 38 36 34 33 31 29 27 26 24 23 22 22 22 21 20 20 19 19 18 18 17 17 17 17 17 16 17 17 17 17 17 17 17 17 17 18 18 19 20 21 23 24 26 28 30 32 33 35 36 37 38 38 38 39 39 39 39 39 39 38
28 26 25 24 23 22 22 21 20 20 20 20 20 19 19 18 17 17 17 16 15 15 15 14 14 14 14 15 15 15 16 16 17 16 16 16 16 15 15 15 14 14 14 14 15 16 17 18 21 23 25 28 30 32 33 34 35 35 36 36 36 36 36
23 22 22 21 21 21 20 19 19 18 18 17 17 16 16 16 15 15 14 14 14 13 13 13 13 13 13 13 13 13 13 14 14 14 15 16 16 16 16 16 15 14 14 14 14 14 14 14 15 16 17 19 21 24 27 29 30 32 33 33 33 34 33
20 19 19 18 17 17 16 16 15 15 15 15 14 14 14 14 14 13 13 12 12 12 12 12 12 12 12 12 12 12 12 12 12 13 13 14 14 14 14 14 14 14 15 15 15 16 16 16 17 18 17 17 18 20 21 23 25 27 29 31 31 32 32
16 15 15 15 15 15 15 16 16 16 17 16 15 15 16 15 15 15 14 14 13 13 13 13 12 12 12 13 13 14 14 14 14 14 14 14 15 14 14 13 13 14 15 15 15 16 16 17 18 21 21 21 22 22 23 24 25 26 27 30 31 31 32
16 16 16 16 16 16 16 17 18 19 20 20 19 19 19 18 18 18 17 17 16 16 15 15 14 15 15 16 17 17 16 16 17 17 17 17 17 16 15 15 14 15 16 16 17 19 19 20 22 25 26 26 26 27 28 30 30 30 31 34 35 34 33
17 17 17 17 17 17 17 18 19 21 22 23 22 22 21 21 21 21 21 20 19 19 19 19 19 20 20 20 20 19 19 19 19 19 19 19 20 19 18 18 17 17 17 18 19 20 21 24 28 30 32 33 34 35 36 38 37 36 38 41 43 41 38
20 20 20 19 19 19 19 19 21 22 24 24 25 25 25 25 25 25 24 23 23 24 25 24 24 23 23 23 22 22 22 22 21 21 22 22 23 23 22 22 21 21 21 21 21 22 23 26 30 34 38 41 42 43 46 47 46 45 46 48 49 48 45
24 24 23 23 23 22 22 23 24 25 26 26 27 27 27 27 28 28 27 26 27 30 30 29 28 27 27 27 27 26 26 27 26 27 27 27 27 27 26 25 25 24 25 25 26 26 27 30 33 38 43 47 49 52 56 57 56 55 55 55 55 54 52
28 28 28 27 27 27 27 26 27 28 28 29 29 29 29 29 29 29 28 28 30 32 32 30 30 31 31 32 32 32 32 32 32 31 32 32 32 32 31 31 30 29 29 29 30 31 33 36 39 43 49 53 56 61 66 68 67 66 65 64 63 61 59
34 34 33 33 32 32 32 32 31 32 32 32 32 32 32 32 32 32 31 32 33 33 32 32 32 33 34 35 35 35 35 35 35 34 34 35 36 37 36 36 36 36 35 36 37 39 41 44 47 51 56 62 65 69 73 76 77 76 74 73 71 68 66
40 39 39 39 39 38 37 38 38 38 38 38 38 38 37 37 37 38 37 37 37 36 36 36 36 36 38 38 38 38 39 38 37 37 37 37 38 39 40 40 40 41 41 41 42 45 48 52 56 60 64 69 73 76 78 81 83 83 82 81 79 76 73
47 46 46 45 45 45 44 44 44 44 44 44 44 44 44 44 45 45 44 43 43 43 43 43 42 42 42 42 41 42 42 41 41 41 41 41 41 42 43 44 44 44 45 45 46 48 51 56 61 66 70 74 78 81 83 84 86 86 87 86 83 81 80
56 55 54 53 52 52 51 50 51 51 50 50 50 49 49 50 51 51 50 48 48 48 49 49 49 49 48 47 46 46 45 44 45 45 44 44 44 44 45 46 47 47 48 49 49 50 53 58 63 68 73 77 81 85 87 87 88 89 89 88 86 84 83
64 64 63 62 60 59 58 57 57 57 57 56 56 55 55 55 55 55 55 55 54 53 52 53 53 53 52 51 51 50 49 49 49 49 49 48 48 48 49 50 51 52 53 53 53 54 56 59 62 68 74 78 81 85 89 90 91 91 91 90 88 86 84
68 69 70 70 68 66 65 64 63 63 63 63 62 62 61 60 60 59 60 61 61 59 58 57 57 56 55 55 55 54 53 53 53 53 53 53 52 53 54 55 56 57 58 58 59 60 61 61 63 67 72 76 79 83 87 90 92 93 93 92 91 89 87
Wind_Speed
25 25 26 27 27 27 28 27 27 27 27 27 27 28 28 28 27 27 26 26 26 26 26 26 26 26 26 26 26 27 27 28 28 29 29 30 30 31 31 32 33 34 34 33 33 34 34 33 34 35 36 37 39 40 41 41 41 42 43 44 44 45 45
25 26 27 27 28 28 29 30 30 30 30 30 30 30 30 29 29 27 26 25 25 25 26 26 26 26 26 26 26 26 26 26 27 27 28 28 29 29 30 30 31 32 32 32 31 31 31 31 31 32 32 33 34 35 36 37 38 39 41 42 43 44 44
26 27 28 28 28 29 30 30 31 32 32 33 33 33 33 32 31 30 29 28 27 26 26 26 26 27 27 26 26 26 26 26 27 27 28 28 28 29 29 30 30 31 32 32 31 31 32 32 32 32 32 32 33 33 34 35 35 36 38 39 41 42 43
29 30 30 31 31 31 31 31 31 32 32 33 33 34 34 33 33 32 31 30 29 28 27 27 27 28 28 28 28 29 29 29 29 29 30 30 30 30 31 31 32 33 33 34 34 33 33 33 34 35 35 35 35 35 36 36 36 37 38 39 40 41 42
32 32 33 33 33 33 33 33 33 33 33 33 33 33 33 33 32 32 31 31 30 29 29 28 28 28 28 29 29 30 30 30 31 31 31 32 32 32 32 33 33 34 35 36 36 36 35 35 35 36 37 38 39 39 39 40 40 41 41 42 42 43 44
34 34 34 34 34 34 34 35 36 35 35 34 34 34 34 33 33 32 32 31 31 31 30 30 29 29 29 29 29 30 30 30 31 31 32 32 33 33 33 33 34 34 35 36 37 37 37 36 35 36 37 38 40 40 41 41 42 43 44 45 46 47 48
34 34 34 34 34 34 34 35 36 35 35 34 34 34 34 34 34 34 33 33 33 32 32 31 31 31 30 30 30 30 30 30 30 31 32 32 32 33 34 34 35 35 36 37 38 38 39 38 37 37 37 38 39 40 41 41 42 42 43 45 46 47 48
33 34 34 34 34 34 34 35 34 34 34 34 33 33 34 34 35 34 34 35 35 34 34 34 34 33 33 33 33 33 32 32 32 32 32 33 33 33 34 34 35 35 36 37 38 39 40 40 40 39 39 38 38 40 41 41 42 42 42 43 44 45 46
33 34 34 35 35 35 34 35 34 34 34 34 34 34 34 34 34 34 34 35 35 36 36 36 36 36 35 35 35 35 35 34 34 34 34 34 34 34 35 35 36 36 37 38 38 39 40 40 41 41 40 40 39 40 40 41 42 43 42 42 42 43 45
33 34 34 35 35 35 35 35 35 36 36 36 35 35 35 34 34 33 33 34 35 36 36 37 37 37 36 36 36 36 36 36 37 37 36 36 36 36 37 37 38 38 39 39 40 40 41 41 42 42 42 42 41 41 41 41 41 43 43 43 42 43 44
34 34 34 35 35 35 36 36 36 37 37 38 38 37 36 36 35 34 34 34 35 36 36 37 37 38 38 38 38 38 38 38 38 38 39 39 39 39 39 40 40 41 41 41 42 42 43 43 43 43 44 44 44 43 43 43 43 43 44 44 44 44 44
34 34 34 35 36 36 37 37 37 38 39 39 41 41 40 38 38 37 37 37 38 38 38 38 38 39 40 40 40 40 40 40 40 40 41 41 41 41 42 42 42 42 42 43 43 44 44 45 45 45 46 46 47 47 47 46 46 46 46 47 47 46 45
35 36 36 36 37 37 38 38 38 39 40 41 43 44 44 43 42 41 41 41 41 41 41 41 41 41 42 42 43 43 43 43 43 44 44 44 44 44 44 44 44 44 44 44 45 46 46 46 47 48 48 49 49 50 50 50 50 49 49 48 48 48 48
37 37 38 38 38 39 40 40 40 41 42 43 44 46 47 47 46 44 44 44 44 44 44 44 44 44 44 45 45 46 46 46 47 47 47 47 47 47 47 46 46 47 47 48 48 48 49 49 49 50 50 51 51 52 53 53 52 51 50 50 50 50 50
39 40 40 40 41 41 42 42 43 43 44 46 47 48 49 50 50 49 48 48 48 48 48 48 48 48 48 48 48 48 49 49 50 50 50 50 50 50 50 50 50 50 50 51 51 51 51 51 51 52 53 54 54 54 54 54 54 53 53 52 52 51 51
42 42 43 44 44 44 45 45 45 46 47 49 51 52 52 53 53 53 53 52 52 52 52 52 52 52 52 52 52 52 52 53 53 53 53 53 53 53 54 54 54 54 54 54 54 54 54 54 54 54 55 56 56 56 56 56 57 57 57 57 56 55 54
45 46 46 47 48 48 48 48 48 49 50 51 53 54 54 55 55 56 56 56 55 55 55 55 55 55 55 55 55 55 55 56 57 57 57 57 57 57 57 57 57 57 57 57 57 57 57 57 57 57 57 58 58 58 58 59 59 60 61 61 60 59 58
49 49 50 51 51 51 51 52 52 52 52 53 54 56 57 57 57 57 58 58 59 59 59 59 59 59 59 59 58 58 59 59 60 61 61 61 61 61 61 61 60 59 59 59 59 60 60 60 60 60 60 60 61 61 61 61 61 62 63 63 63 63 63
51 52 53 53 54 55 55 55 55 55 55 56 56 58 60 60 60 60 61 61 62 62 63 63 62 62 62 62 62 62 62 62 63 64 65 65 65 64 64 64 64 63 63 63 63 63 63 63 63 64 64 64 64 64 64 64 64 64 65 65 65 65 66
54 55 56 56 57 58 58 58 59 59 59 59 58 59 60 62 62 63 63 63 63 64 64 64 64 63 63 63 63 63 62 62 63 66 67 67 66 66 66 67 67 67 67 67 66 66 66 66 66 66 67 67 67 67 67 67 67 67 68 68 68 68 68
56 57 57 58 58 59 59 59 59 59 58 58 57 57 58 59 60 61 61 61 61 62 62 63 63 62 61 61 61 60 60 59 60 63 64 64 65 65 66 67 68 68 68 68 68 69 68 68 68 68 68 68 69 69 69 69 69 70 70 71 72 72 72
56 55 55 55 55 56 56 56 57 56 56 55 55 55 55 56 56 57 58 58 58 58 59 60 60 60 60 59 59 58 58 57 58 58 58 59 61 62 63 64 65 66 66 67 67 68 68 68 68 68 68 68 68 69 69 69 69 70 70 72 73 74 75
53 53 52 52 52 53 53 53 54 54 54 54 54 54 54 54 54 55 56 56 57 57 57 57 57 58 58 58 58 57 57 57 56 56 55 56 58 59 60 61 62 63 64 64 64 65 65 65 65 66 66 66 67 67 68 69 69 69 69 70 71 73 75
51 51 51 51 50 51 51 52 52 52 52 53 53 53 52 52 52 53 54 54 55 55 55 55 55 55 55 55 55 55 55 54 54 54 54 54 55 56 58 59 60 61 62 62 62 63 63 63 63 63 64 64 64 65 65 66 67 68 68 69 69 70 72
50 50 50 50 49 49 48 48 48 49 49 50 50 50 50 50 50 50 51 51 51 52 52 52 52 52 52 52 51 51 51 51 51 51 52 52 53 54 55 56 57 58 59 60 60 61 61 61 61 62 62 62 62 63 63 63 64 64 65 66 66 67 68
49 49 48 48 48 47 46 45 44 44 45 46 47 47 47 48 48 48 48 48 48 48 49 50 50 49 49 48 48 48 48 48 48 49 49 50 51 52 52 53 53 54 55 56 57 58 58 59 59 60 60 61 61 61 61 61 62 62 61 62 62 63 64
47 47 46 46 46 46 45 43 42 41 42 42 43 44 45 45 45 45 45 46 46 46 46 46 46 45 45 46 46 47 47 47 47 47 47 47 48 49 49 50 50 51 52 53 54 54 55 55 56 57 58 58 59 59 59 60 60 60 60 59 59 59 59
44 44 44 45 45 44 43 42 41 40 40 40 41 41 42 43 43 43 44 44 44 43 43 43 44 44 44 45 46 46 46 46 46 46 45 45 46 46 47 47 48 48 49 50 50 51 52 52 53 54 55 56 56 57 57 57 58 58 58 57 57 57 57
42 42 42 42 43 42 42 41 40 39 39 39 39 40 40 41 41 42 42 42 41 40 41 42 43 44 44 44 44 44 44 44 44 44 44 44 44 44 45 45 46 46 46 47 47 48 49 49 50 51 52 53 54 54 54 55 55 55 55 55 55 55 55
41 41 41 41 40 40 40 40 39 38 37 37 38 38 39 39 39 40 41 40 39 38 40 41 41 41 42 41 42 42 42 42 42 42 42 42 42 43 43 44 44 45 45 45 46 46 46 47 47 48 49 50 51 51 51 51 52 52 52 52 52 52 52
40 40 40 40 39 39 38 38 38 37 36 36 36 37 37 37 38 38 38 37 37 37 39 39 39 39 39 39 39 40 40 40 40 40 40 40 40 41 41 42 42 43 43 44 44 44 45 45 45 46 46 47 47 48 48 48 48 49 49 49 50 50 50
39 39 39 39 38 38 37 37 37 37 36 36 36 36 36 36 36 36 36 36 36 36 36 36 36 36 36 36 37 37 37 37 38 38 39 38 38 38 39 39 40 40 41 42 42 43 43 43 44 44 44 45 45 46 46 46 46 46 46 46 47 47 47
38 38 38 38 38 38 37 36 36 36 36 36 36 36 36 35 35 35 35 35 35 35 35 34 34 34 34 34 34 34 34 35 35 36 36 36 36 36 36 37 37 38 38 39 40 41 41 41 42 43 43 43 43 44 44 44 44 43 43 44 44 45 45
37 38 38 37 37 37 37 36 36 35 35 35 35 35 35 34 34 34 35 35 34 34 33 33 33 32 33 33 33 32 32 33 33 33 33 33 34 34 34 34 35 36 36 37 38 39 39 40 40 41 42 42 42 42 42 42 42 42 42 42 43 43 43
35 36 37 37 37 36 36 36 35 35 35 35 35 35 35 34 34 34 33 33 34 33 33 32 32 32 32 32 32 31 31 31 31 31 31 31 31 31 31 32 32 33 34 35 36 37 38 39 39 40 41 41 42 41 41 41 41 41 41 41 42 42 42
33 34 35 36 36 36 35 35 34 34 34 34 35 35 35 34 34 33 32 32 33 33 32 32 32 31 31 31 31 31 30 30 31 30 30 30 30 30 29 29 30 30 31 32 33 34 35 36 38 39 40 41 41 40 40 40 40 40 41 40 40 41 40
Wind_Direction
271 272 272 272 270 269 269 269 269 269 270 270 270 271 272 271 270 268 266 264 261 260 260 260 259 258 257 257 256 255 255 254 254 254 254 254 254 253 252 251 251 251 251 250 249 249 249 249 249 250 250 250 249 248 245 243 240 238 236 234 234 234 235
274 274 274 275 275 274 274 273 272 270 270 270 270 270 270 271 271 269 266 262 260 258 257 257 257 257 256 256 256 255 255 255 254 254 254 254 254 254 254 253 252 252 251 250 250 249 249 249 248 248 249 249 249 249 248 248 247 246 244 243 241 239 238
275 276 276 277 277 277 275 274 273 272 270 269 269 270 270 270 270 270 269 266 263 260 257 256 256 256 257 256 256 256 255 255 255 255 255 254 254 254 255 256 256 255 255 254 254 254 253 253 252 251 251 250 249 250 250 249 249 248 248 247 246 246 244
281 282 282 282 281 280 278 276 273 271 270 269 269 269 269 269 269 269 269 268 267 265 263 260 258 257 256 256 256 256 256 256 256 256 257 257 256 256 257 257 258 258 258 258 258 259 258 258 257 257 256 255 254 253 253 252 251 250 250 249 248 247 247
286 286 285 284 284 282 280 278 276 273 271 270 270 270 270 270 270 271 271 270 270 269 268 266 264 262 261 259 259 258 258 258 258 258 258 258 258 258 259 259 259 260 260 261 261 260 260 260 260 260 260 259 258 257 256 255 254 253 252 251 250 250 249
287 286 284 283 283 281 280 279 278 276 274 272 271 272 272 273 273 273 273 273 273 272 272 271 269 268 266 265 264 262 261 260 260 259 259 259 259 259 259 260 260 260 261 261 262 262 261 260 259 259 259 259 259 259 258 257 256 255 254 253 253 252 252
284 283 282 282 281 280 279 278 278 277 275 273 272 271 271 272 274 275 275 275 275 275 274 274 273 272 271 270 269 268 266 265 263 262 261 260 260 260 260 260 260 260 260 261 261 262 262 261 260 258 257 257 258 259 258 258 257 256 256 255 255 254 254
280 279 279 280 280 279 278 277 277 276 275 273 272 271 271 271 272 274 275 275 275 275 275 274 274 274 273 273 272 271 270 269 268 266 265 264 263 262 261 261 261 261 260 260 260 261 261 262 262 261 259 258 257 257 257 258 257 256 256 256 256 256 255
276 276 278 279 279 278 277 276 276 276 275 274 273 272 271 271 271 272 272 273 274 274 274 274 273 273 273 272 272 272 272 271 269 268 267 266 266 265 264 263 263 262 262 262 261 261 261 261 261 262 261 260 259 257 257 257 257 257 256 255 255 256 256
275 275 277 278 278 278 277 276 276 276 276 275 274 272 272 271 271 271 271 271 272 273 273 274 274 274 273 272 272 271 271 270 269 269 268 267 266 265 265 265 264 264 263 263 263 263 263 263 263 263 263 262 261 260 258 258 257 257 257 256 254 253 254
276 277 277 278 278 278 278 278 278 279 279 278 277 274 273 273 273 273 272 271 271 271 272 273 274 275 275 274 273 272 271 271 270 269 269 268 267 266 265 265 265 264 264 264 264 264 265 265 265 265 265 265 264 263 261 260 259 259 258 258 257 255 254
276 277 277 277 277 277 277 278 278 279 279 280 279 277 276 275 276 276 276 275 274 273 273 273 273 273 274 274 274 274 274 273 272 271 270 269 269 268 267 267 266 265 264 264 264 265 265 265 265 265 265 266 266 265 264 263 262 261 260 260 260 259 258
277 276 276 276 276 276 276 277 277 278 278 278 278 277 277 277 277 277 277 276 276 275 275 274 274 274 274 274 274 274 274 273 273 272 272 271 270 270 269 268 268 267 266 265 265 264 264 264 264 264 264 265 265 265 265 264 264 263 263 262 262 262 262
277 277 277 276 277 277 277 278 279 279 279 279 278 278 278 278 278 278 277 277 276 275 275 275 274 274 273 273 273 273 273 273 272 272 271 271 271 270 269 268 268 267 267 266 265 265 264 263 263 263 263 263 264 264 264 264 264 264 264 263 263 263 263
279 280 280 280 280 279 279 280 281 281 281 281 280 279 279 279 280 279 279 278 278 277 276 275 275 274 273 273 272 272 272 272 271 271 270 270 270 269 269 268 267 267 266 266 265 265 264 264 263 263 263 263 263 264 264 265 265 265 264 263 262 262 262
283 282 282 282 282 282 281 281 281 282 281 281 281 280 280 280 280 280 279 279 278 278 277 277 276 275 274 274 273 273 272 271 271 270 269 269 268 268 268 267 267 266 266 266 266 266 266 266 265 265 265 265 265 264 264 264 265 265 264 263 262 261 261
285 284 284 284 283 283 282 282 282 282 282 281 281 280 280 280 280 280 280 280 279 278 277 277 276 276 275 275 274 274 273 273 272 271 270 269 269 268 267 267 266 266 266 266 266 266 266 266 266 266 266 266 266 265 264 264 264 264 264 264 263 262 261
287 286 286 285 285 284 284 283 283 282 282 282 282 281 280 280 280 280 280 280 280 279 278 278 277 277 276 275 275 274 274 273 273 272 271 270 270 269 269 268 268 268 267 267 267 266 266 265 265 265 265 266 266 266 265 265 264 264 264 264 263 263 262
287 287 287 286 286 285 285 285 284 284 284 283 283 282 281 281 281 281 280 280 280 280 279 279 278 277 277 276 276 275 275 274 273 272 272 271 271 270 270 269 268 268 267 267 266 266 265 265 265 265 264 264 265 265 265 265 265 264 264 263 263 263 263
287 287 287 286 286 285 285 285 285 284 284 284 283 283 282 281 281 280 280 280 280 280 279 279 278 278 277 277 276 275 274 274 273 273 273 272 272 271 270 269 268 267 266 266 265 265 264 264 264 264 264 264 264 264 264 264 264 264 264 264 263 262 262
286 285 285 285 285 284 284 284 284 283 283 283 283 282 282 281 280 280 279 279 279 279 279 279 278 278 278 277 276 276 275 274 273 273 273 273 272 271 270 270 269 268 267 267 266 265 264 264 263 263 263 263 263 263 263 263 263 263 264 264 263 263 262
285 285 285 285 284 284 284 284 284 284 283 283 282 282 282 281 281 280 280 279 279 278 278 277 277 277 277 277 276 276 275 274 274 274 273 273 272 272 272 271 270 269 268 267 266 265 265 264 263 263 262 262 261 261 261 261 261 261 262 262 263 263 262
286 286 286 286 286 286 285 285 285 285 284 284 283 283 282 282 281 280 280 280 279 278 278 277 277 277 277 277 276 276 276 275 275 274 273 272 272 272 271 271 270 269 269 268 267 266 265 264 264 264 263 262 262 261 261 260 260 259 259 260 261 262 262
287 287 287 286 286 286 286 286 285 285 285 284 284 283 283 282 282 281 280 280 279 279 279 278 278 277 277 277 276 276 276 275 275 274 273 272 271 270 270 270 270 269 269 269 268 268 267 266 265 265 264 263 263 262 262 261 261 260 259 259 259 259 260
288 288 287 287 286 286 286 286 286 285 285 285 284 284 283 283 282 281 281 280 280 280 279 279 278 278 278 278 278 278 277 276 275 274 273 272 271 270 270 270 269 269 270 270 269 269 268 267 267 266 265 265 264 263 263 263 262 262 261 260 259 259 259
289 288 288 287 286 286 285 285 285 285 285 284 284 284 283 283 282 282 282 281 281 280 279 279 280 280 280 280 280 279 278 276 275 275 274 273 273 272 272 271 271 270 270 270 269 269 269 268 268 267 267 266 265 265 264 264 263 263 263 263 262 261 259
288 288 288 287 286 286 285 285 285 285 284 284 284 283 283 283 283 282 282 281 281 281 281 281 281 281 280 279 278 277 276 276 276 276 276 276 276 275 275 274 273 272 271 271 270 269 269 269 268 268 268 268 267 266 266 266 265 264 264 265 264 263 262
289 289 289 288 288 287 287 286 286 285 284 284 283 283 283 283 283 282 282 282 282 283 283 282 281 279 278 278 278 278 278 278 278 278 278 278 277 277 276 276 275 275 274 273 272 271 270 269 269 269 268 268 268 268 268 267 267 266 266 266 266 265 264
291 290 289 289 289 288 288 287 287 286 285 284 283 283 282 282 281 281 281 281 282 282 281 280 280 280 280 280 280 280 280 280 280 280 280 279 279 278 278 277 277 276 276 275 274 273 272 271 270 269 269 268 268 268 268 268 268 268 267 267 267 266 265
292 291 290 290 289 290 289 289 288 287 286 285 284 283 282 282 281 281 281 281 281 280 278 278 278 279 279 279 279 280 279 279 279 279 279 279 279 279 279 279 279 279 278 278 277 276 274 273 272 270 269 269 268 268 268 269 269 269 268 268 267 267 266
292 292 291 291 291 290 290 290 290 289 288 287 286 285 284 283 283 283 283 283 282 280 279 279 279 279 279 279 279 279 279 278 279 279 278 278 278 278 279 279 279 279 279 279 279 278 277 276 274 273 271 270 269 269 269 269 269 269 268 268 268 267 266
293 292 292 292 292 292 291 291 291 291 290 289 288 287 287 286 286 286 285 284 283 282 282 282 282 282 281 281 280 280 280 280 280 279 279 278 278 277 278 278 278 278 279 278 278 278 278 277 276 275 273 272 271 270 269 269 268 268 268 268 268 267 266
293 292 292 292 292 292 292 292 291 291 290 290 289 288 288 288 288 287 286 285 285 285 285 285 284 283 283 282 282 282 282 281 281 280 280 280 279 278 278 278 278 278 278 278 277 277 277 276 276 275 274 273 272 271 270 269 268 268 268 267 266 266 265
293 293 292 292 292 292 292 292 291 291 290 290 289 288 288 288 288 287 286 286 286 286 285 285 284 284 283 283 283 283 282 282 282 281 281 281 280 280 279 279 278 278 278 277 277 277 276 275 274 274 273 272 271 271 270 269 269 268 267 266 265 265 264
292 292 293 293 292 292 292 292 292 292 291 290 290 289 288 288 288 287 288 288 287 287 286 286 285 284 283 283 282 282 282 282 282 282 282 282 281 281 281 281 280 280 279 278 278 277 276 275 274 273 272 272 271 270 269 268 268 268 267 266 266 265 264
290 291 292 292 292 292 292 292 291 291 291 290 289 289 288 288 287 287 288 288 287 287 287 287 287 286 285 284 284 283 283 282 282 282 282 282 282 282 282 282 282 282 281 280 279 278 276 275 273 272 271 271 271 270 269 268 267 267 266 266 266 265 264